Location: Andiroba
(19.8650°S, 43.9258°W)
Time: 00:47:03
(UTC+00:00)

Meteor 2-6 Rocket - Pass Details

Date: 15 June 2024
Orbit: 806 x 913 km, 81.3° (Epoch: 24 July)

Event Time Altitude Azimuth Distance (km) Brightness Sun altitude
Rises 08:55:18 0° 344° (NNW) 3,484 7.5 -8.0°
Reaches altitude 10° 08:57:46 10° 339° (NNW) 2,562 6.7 -7.4°
Maximum altitude 09:03:29 54° 263° (W) 1,098 4.5 -6.2°
Drops below altitude 10° 09:09:20 10° 186° (S) 2,618 6.5 -4.9°
Sets 09:11:53 0° 181° (S) 3,565 7.2 -4.4°
